Flag for Saudi Arabia Weather past 2 weeks in Medina, Saudi Arabia

Now
82 °F

Clear.


Feels Like: 81 °F
Forecast: 67 / 98 °F
Wind: 9 mph from Southwest

Location: Madinah

Current Time: Apr 22, 2015 at 5:05:57 AM

Latest Report: Apr 22, 2015 at 4:00 AM


Visibility: 10 mi

Pressure: 29.95 "Hg

Humidity: 35%

Dew point: 52 °F

Location of MedinaLocation

Historic Weather in Medina — Graph

°F

Medina temperature yesterday

Maximum temperature yesterday: 99 °F (at 4:00 PM)
Minimum temperature yesterday: 77 °F (at 5:00 AM)
Average temperature yesterday: 88 °F

Past Weeks' High & Low Weather Summary

 TemperatureHumidityPressure
High100 °F (Apr 9, 3:00 PM)36% (Apr 13, 6:00 AM)30.24 "Hg (Apr 13, 6:00 AM)
Low61 °F (Apr 12, 6:00 AM)2% (Apr 13, 6:00 PM)29.80 "Hg (Apr 10, 3:00 PM)
Average82 °F15%29.99 "Hg
* Reported Apr 7 3:00 AM — Apr 22 3:00 AM, Medina, Weather by CustomWeather, © 2015

Note: Actual official high and low records may vary slightly from our data, if they occured in-between our weather recording intervals... More about our weather records

Advertising

Medina weather history for previous 24 hours

 ConditionsComfort  
Time TempWeatherWind HumidityBarometerVisibility
3:00 AM
Wed, Apr 22
82 °FClear.8 mph35%29.95 "Hg10 mi
2:00 AM84 °FClear.9 mph33%29.95 "Hg10 mi
1:00 AM86 °FClear.15 mph29%29.98 "Hg10 mi
12:00 AM86 °FClear.13 mph27%29.98 "Hg10 mi
11:00 PM
Tue, Apr 21
88 °FClear.15 mph24%30.01 "Hg10 mi
10:00 PM88 °FClear.14 mph21%29.98 "Hg10 mi
9:00 PM90 °FClear.13 mph18%29.98 "Hg10 mi
8:00 PM91 °FClear.20 mph17%29.95 "Hg6 mi
7:00 PM91 °FClear.15 mph16%29.95 "Hg6 mi
6:00 PM93 °FSunny.20 mph15%29.92 "Hg6 mi
5:00 PM95 °FSunny.16 mph14%29.92 "Hg6 mi
4:00 PM99 °FSunny.17 mph13%29.89 "Hg6 mi
3:00 PM97 °FSunny.23 mph12%29.92 "Hg5 mi
2:00 PM97 °FSunny.17 mph14%29.92 "Hg10 mi
1:00 PM97 °FSunny.12 mph17%29.95 "Hg10 mi
12:00 PM95 °FSunny.8 mph16%29.98 "Hg10 mi
11:00 AM91 °FSunny.5 mph18%29.98 "Hg6 mi
10:00 AM90 °FSunny.6 mph20%30.01 "Hg5 mi
9:00 AM86 °FSunny.No wind22%30.01 "Hg4 mi
8:00 AM82 °FSunny.No wind25%29.98 "Hg4 mi
7:00 AM77 °FSunny.No wind28%29.98 "Hg2 mi
6:00 AM77 °FSunny.5 mph30%29.95 "Hg2 mi
5:00 AM77 °FClear.No wind32%29.95 "Hg5 mi
Weather by CustomWeather, © 2015

See weather overviewHow to use our weather pages